EW4652 Weather Reports


time (UTC)temp
F
wind
direction
speed
knots
gust
knots
rain 1hr
in
rain 24hr
in
rain mn
in
humidity
%
barometer
mb
20260504034518 47 280 0.0 0.9 0.00 0.00 0.00 61 1006.7
20260504033014 48 280 0.0 0.9 0.00 0.00 0.00 60 1006.8
20260504031510 50 280 0.0 2.6 0.00 0.00 0.00 56 1007.0
20260504030008 54 280 0.9 1.7 0.00 0.00 0.00 47 1006.9
20260504024510 56 280 0.0 1.7 0.00 0.00 0.00 44 1007.0
20260504023007 55 280 0.0 2.6 0.00 0.00 0.00 45 1006.9
20260504021506 56 280 1.7 2.6 0.00 0.00 0.00 45 1006.8
20260504020005 57 280 1.7 3.5 0.00 0.00 0.00 44 1006.7
20260504014507 59 281 4.3 7.8 0.00 0.00 0.00 42 1006.6
20260504013005 61 296 3.5 7.8 0.00 0.00 0.00 40 1006.7
20260504011504 62 296 3.5 7.0 0.00 0.00 0.00 40 1006.7
20260504010003 64 295 3.5 8.7 0.00 0.00 0.00 38 1006.6
20260504004505 66 293 3.5 9.6 0.00 0.00 0.00 36 1006.5
20260504003001 68 297 3.5 8.7 0.00 0.00 0.00 31 1006.5
20260504001502 69 308 6.1 9.6 0.00 0.00 0.00 30 1006.6
20260504000137 69 307 8.7 13.9 0.00 0.00 0.00 30 1006.6
20260503234603 69 303 8.7 13.9 0.00 0.00 0.00 28 1006.5
20260503233140 70 313 6.1 12.2 0.00 0.00 0.00 30 1006.4
20260503231539 70 327 7.0 16.5 0.00 0.00 0.00 28 1006.5
20260503230138 70 315 7.8 14.8 0.00 0.00 0.00 27 1006.5
20260503224538 71 277 8.7 14.8 0.00 0.00 0.00 30 1006.4
20260503223038 71 322 9.6 15.6 0.00 0.00 0.00 28 1006.4
20260503221539 71 315 7.8 16.5 0.00 0.00 0.00 30 1006.4
20260503220036 71 298 10.4 21.7 0.00 0.00 0.00 31 1006.4
20260503214534 71 302 12.2 20.0 0.00 0.00 0.00 31 1006.5
20260503213034 71 304 7.0 16.5 0.00 0.00 0.00 34 1006.6
20260503211534 71 338 9.6 18.2 0.00 0.00 0.00 31 1006.5
20260503210032 71 294 13.9 18.2 0.00 0.00 0.00 29 1006.5
20260503204531 71 336 9.6 20.9 0.00 0.00 0.00 28 1006.7
20260503203036 71 312 9.6 20.9 0.00 0.00 0.00 28 1006.7
20260503201630 71 319 11.3 17.4 0.00 0.00 0.00 29 1006.8
20260503200028 70 304 8.7 19.1 0.00 0.00 0.00 31 1006.8
20260503194529 71 5 7.8 16.5 0.00 0.00 0.00 33 1006.8
20260503193025 70 304 11.3 16.5 0.00 0.00 0.00 35 1007.0
20260503191523 70 5 11.3 20.0 0.00 0.00 0.00 35 1007.0
20260503190025 70 10 10.4 17.4 0.00 0.00 0.00 32 1007.1
20260503184520 70 346 7.8 21.7 0.00 0.00 0.00 36 1007.1
20260503183021 69 290 12.2 18.2 0.00 0.00 0.00 34 1007.1
20260503181515 69 5 8.7 17.4 0.00 0.00 0.00 36 1007.1
20260503180013 69 5 9.6 18.2 0.00 0.00 0.00 37 1007.3
20260503174509 68 327 8.7 20.9 0.00 0.00 0.00 41 1007.4
20260503173008 68 337 9.6 21.7 0.00 0.00 0.00 41 1007.4
20260503171509 67 317 9.6 18.2 0.00 0.00 0.00 43 1007.3
20260503090112 52 232 13.9 20.0 0.00 0.00 0.00 55 1012.1
20260503081551 53 232 13.9 21.7 0.00 0.00 0.00 51 1012.4
20260503071604 54 248 12.2 17.4 0.00 0.00 0.00 49 1012.8
20260503054539 51 228 7.0 10.4 0.00 0.00 0.00 49 1013.6
20260503053035 51 220 7.0 8.7 0.00 0.00 0.00 49 1013.8
20260503051526 51 223 7.0 9.6 0.00 0.00 0.00 48 1013.8
20260503050022 51 218 6.1 8.7 0.00 0.00 0.00 48 1014.0
20260503044541 52 220 6.1 9.6 0.00 0.00 0.00 48 1013.9
20260503043036 51 215 5.2 9.6 0.00 0.00 0.00 49 1014.0
20260503041518 51 208 4.3 7.0 0.00 0.00 0.00 49 1014.2
20260503040015 51 202 4.3 7.8 0.00 0.00 0.00 48 1014.4